Other Public Products
Issued by NWS Grand Forks, ND

Home | Current Version | Previous Version | Graphics & Text | Print | Product List | Glossary On
Versions: 1 2 3 4 5 6 7 8 9 10 11 12 13 14 15 16 17 18 19 20 21 22 23 24 25 26 27 28 29 30 31 32 33 34 35 36 37 38 39 40 41 42 43 44 45 46 47 48 49 50
000
FPUS83 KFGF 231610
OPUFGF
PRAIRIE TO PINES WEATHER ROUNDUP
NATIONAL WEATHER SERVICE EASTERN NORTH DAKOTA/GRAND FORKS ND
1000 AM CST SUN NOV 23 2014

 **SATELLITE DATA USED TO AUGMENT SKY COVER AT AUTOMATED STATIONS**
 *****  WEATHER ACROSS EASTERN NORTH DAKOTA  *****

CITY           SKY/WX    TMP DP  RH WIND       PRES   REMARKS
GRAND FORKS    CLOUDY    43  34  70 W13       29.39R
GRAND FORKS AF CLOUDY    43  36  75 W9        29.40R
GRAND CITY NWS   N/A     39 N/A N/A W6          N/A
BUXTON         NOT AVBL
DEVILS LAKE    CLOUDY    34  21  60 W22       29.38R WCI  22
FARGO          LGT RAIN  39  35  86 SW6       29.43S
WAHPETON ARPT  CLOUDY    36  34  93 SW5       29.46R
$$

 *****  WEATHER ACROSS CENTRAL AND WESTERN NORTH DAKOTA  *****

CITY           SKY/WX    TMP DP  RH WIND       PRES   REMARKS
JAMESTOWN      CLOUDY    39  32  76 W18G28    29.42S
BISMARCK       PTSUNNY   33  18  53 W28G37    29.53R WCI  20
MINOT          FLURRIES  22  15  75 W29G38    29.44R WCI   4
MINOT AFB      MIX PCPN  23  19  87 NW30      29.42S WCI   5
GARRISON         N/A     23  17  78 W30G41    29.48S WCI   5
WILLISTON      LGT SNOW  19  13  77 NW20G26   29.66R WCI   3
DICKINSON      MIX PCPN  25  18  74 NW29G45   29.57R WCI   8
HETTINGER      CLOUDY    32  24  72 NW33G45   29.59R WCI  17
$$

 *****  OTHER OBSERVATIONS NORTHEAST NORTH DAKOTA  *****

CITY           SKY/WX    TMP DP  RH WIND       PRES   REMARKS
WALHALLA         N/A     28  28 100 N16       29.40R WCI  17
LANGDON        CLOUDY    34  32  93 NW5       29.36R
CAVALIER       CLOUDY    28  27  93 N10G16    29.39R FOG     WCI  19
GRAFTON        CLOUDY    37  32  81 W7        29.37S
CANDO          CLOUDY    32  23  69 W16G24    29.40R WCI  21
FORT TOTTEN      N/A     35  26  70 NW12      29.95S
ROLLA          CLOUDY    27  27 100 N9        29.39R WCI  17
RUGBY          CLOUDY    27  19  74 W20G25    29.41S WCI  13
 ***** THE ABOVE OBSERVATIONS ARE NON NWS ARE NOT QUALITY
        CONTROLLED AND MAY MIS-REPORT RAIN FOR SNOW...
$$

 *****  OTHER OBSERVATIONS SOUTHEAST NORTH DAKOTA *****

CITY           SKY/WX    TMP DP  RH WIND       PRES   REMARKS
COOPERSTOWN    NOT AVBL
VALLEY CITY    CLOUDY    39  37  93 W14       29.43S
OAKES            N/A     37  36  93 W10       29.47S
GWINNER        MOSUNNY   37  36  93 W12       29.47S
SHEYENNE NWR     N/A     39  36  88 W7        29.95S
BUFFALO        NOT AVBL
WYNDMERE         N/A     39  37  93 W10         N/A
 ***** THE ABOVE OBSERVATIONS ARE NON NWS ARE NOT QUALITY
       CONTROLLED AND MAY MIS-REPORT RAIN FOR SNOW...
$$

  *****  WEATHER ACROSS NORTHERN MINNESOTA  *****

CITY           SKY/WX    TMP DP  RH WIND       PRES   REMARKS
FLAG ISLAND    CLOUDY    34  32  93 SE8       29.37S FOG
WARROAD        CLOUDY    34  30  86 S5        29.38R FOG
ROSEAU         CLOUDY    36  30  80 S8        29.37R HAZE
HALLOCK        PTSUNNY   36  32  87 NW5       29.37R
THF RVR FALLS  CLOUDY    34  32  93 S7        29.39F
HALSTAD          N/A     35  34  94 S6          N/A
FOSSTON        CLOUDY    34  30  86 S7        29.42R FOG
BAUDETTE       CLOUDY    33  33 100 S3        29.39R FOG
WASKISH        CLOUDY    36  34  93 CALM      29.40S FOG
CROOKSTON      PTSUNNY   36  32  87 S7        29.41S FOG
$$
  *****  WEATHER ACROSS CENTRAL AND WEST MINNESOTA  *****

CITY           SKY/WX    TMP DP  RH WIND       PRES   REMARKS
BEMIDJI        CLOUDY    33  33  99 CALM      29.40S FOG
PARK RAPIDS    CLOUDY    35  34  96 SW3       29.41R
WADENA         CLOUDY    34  34 100 W7        29.42S
DETROIT LAKES  PTSUNNY   36  34  93 SW6       29.44R
MOORHEAD       DRIZZLE   37  37 100 SW5       29.44S
FERGUS FALLS   CLOUDY    36  34  93 CALM      29.48R
ELBOW LAKE       N/A     35  33  94 W5        29.46R
MORRIS MN        N/A     37  34  87 W6        29.47S
STAPLES        CLOUDY    34  34 100 CALM      29.43S FOG
WHEATON        LGT RAIN  37  34  87 W7        29.50R
$$
  *****  WEATHER ELSEWHERE ACROSS MINNESOTA  *****

CITY           SKY/WX    TMP DP  RH WIND       PRES   REMARKS
DULUTH         FOG       38  37  97 S7        29.42S VSB 1/8
INTRNTL FALLS  CLOUDY    34  32  92 E6        29.38F FOG
ELY            FOG       36  36 100 CALM      29.41F VSB 1/4
CLOQUET        CLOUDY    37  37 100 SW3       29.44R FOG
BRAINERD       CLOUDY    34  34 100 SW12      29.46R FOG
HIBBING        CLOUDY    37  35  92 CALM      29.42R FOG
ALEXANDRIA     CLOUDY    37  33  85 W5        29.46R
SAINT CLOUD    MIX PCPN  38  35  89 CALM      29.46R FOG
MINNEAPOLIS    CLOUDY    48  47  96 CALM      29.45F FOG
$$

  *****  WEATHER ACROSS SOUTH DAKOTA  *****

CITY           SKY/WX    TMP DP  RH WIND       PRES   REMARKS
SIOUX FALLS    LGT RAIN  40  37  89 NW17      29.54R
BROOKINGS      NOT AVBL
WATERTOWN      CLOUDY    37  32  82 NW13      29.50R
HURON          PTSUNNY   39  32  76 NW14      29.57R
SISSETON         N/A     40  35  83 NW12      29.47R
ABERDEEN       CLOUDY    40  32  73 W15       29.52S
MITCHELL       CLOUDY    43  33  68 NW14      29.60
PIERRE         PTSUNNY   39  30  70 W16       29.62R
MOBRIDGE       CLOUDY    39  30  70 NW15      29.52R
RAPID CITY     SUNNY     41  19  41 NW37G53   29.69R
$$

  *****  SOME WEATHER IN NEARBY STATES *****

CITY           SKY/WX    TMP DP  RH WIND       PRES   REMARKS
GLASGOW MT     MOSUNNY   24  15  68 NW31G39   29.77R WCI   7
GREAT FALLS MT MOCLDY    30  21  69 SW12      29.89R WCI  20
CHEYENNE WY    SUNNY     33  10  38 NW18G30   29.77R WCI  22
SCOTTSBLUFF NE MOSUNNY   36  21  54 NW15      29.76S
OMAHA NE       CLOUDY    53  52  96 S5        29.47F
DES MOINES IA  CLOUDY    53  50  89 S6        29.50F
DAVENPORT IA   LGT RAIN  50  48  93 S14       29.60F FOG
CHICAGO IL     LGT RAIN  50  44  80 S16       29.71F
EAU CLAIRE WI  CLOUDY    48  46  93 S7        29.48F
LA CROSSE WI   CLOUDY    51  49  92 S8        29.52F
$$

  *****  SOME NATIONAL WEATHER *****

CITY           SKY/WX    TMP DP  RH WIND       PRES   REMARKS
LA GUARDIA NY  PTSUNNY   49  24  37 S8        30.18F
RALEIGH NC     CLOUDY    50  40  68 SE6       30.21F
ATLANTA GA     LGT RAIN  52  50  93 E16       29.98F FOG
NEW ORLEANS LA CLOUDY    63  59  87 S21G28    29.69S
OKLAHOMA CITY  PTSUNNY   57  51  80 S18       29.40F
ALBUQUERQUE NM PTSUNNY   42  26  53 NW22G32   29.90R
SALT LAKE CITY PTSUNNY   34  28  79 N5        30.19R
LOS ANGELES CA MOSUNNY   62  50  64 N6        30.13R
BOISE ID       CLOUDY    33  28  81 E6        30.31R
SEATTLE WA     RAIN      48  45  89 S22G28    30.09S FOG
$$

*** WEATHER ACROSS MANITOBA...SASKATCHEWAN AND ONTARIO ***
                ***ONTARIO***

CITY           SKY/WX    TMP DP  RH WIND       PRES   REMARKS
GERALDTON      FRZ DRZL  27  27 100 E12       29.55F VSB 3/4 WCI  16
THUNDER BAY    DRZL/FOG  37  37 100 E10       29.46F VSB 1
SIOUX LOOKOUT  DRIZZLE   32  32 100 E5        29.43S FOG
TORONTO        CLOUDY    46  41  81 S6        29.99S
BIG TROUT LK   CLOUDY     1  -4  78 NE7       29.80R WCI -11
PICKLE LAKE    LGT SNOW  16  12  86 E12       29.55S WCI   3
DRYDEN         CLOUDY    32  32 100 S5        29.42R FOG
KENORA         FRZ DRZL  32  32 100 SE6       29.38F VSB 1
$$
                *** MANITOBA***

CITY           SKY/WX    TMP DP  RH WIND       PRES   REMARKS
BRANDON        FRZ DRZL  16  14  93 N21       29.48R WCI  -2
DAUPHIN        LGT SNOW  10   7  85 N16G23    29.62R WCI  -7
ISLAND LAKE    LGT SNOW   3   0  85 NE8       29.77R WCI -10
PILOT MOUND    NOT AVBL
THE PAS        PTCLDY     0  -6  78 N6        29.87R WCI -12
THOMPSON       MOCLDY   -17 -22  76 N7        29.94R WCI -33
WINNIPEG       CLOUDY    28  27  93 NW8       29.39R FOG     WCI  20
LYNN LAKE      CLEAR    -20 -26  76 NW3       29.93R
CHURCHILL      CRYSTALS -13 -20  70 W13G18    29.96R WCI -34
GILLAM         MOCLDY   -20 -26  76 NW5       29.95R WCI -33
$$
                ***SASKATCHEWAN***

CITY           SKY/WX    TMP DP  RH WIND       PRES   REMARKS
ESTEVAN        LGT SNOW  16  10  79 NW21G30   29.59R DRFTSNOWWCI  -2
KINDERSLEY     MOCLDY    14  10  85 NW7       29.80R WCI   4
LLOYDMINSTER   PTCLDY     3   1  92 W8        29.78R WCI -10
PRINCE ALBERT  CLOUDY     3  -2  78 NE3       29.85R
REGINA         SNOWSHWR  10   7  85 NW16G25   29.72R DRFTSNOWWCI  -7



USA.gov is the U.S. government's official web portal to all federal, state and local government web resources and services.